Flag for Norway Weather past 2 weeks in Førde, Norway

37 °F

Rain. Mostly cloudy.

Feels Like: 27 °F
Forecast: 35 / 39 °F
Wind: 22 mph from Southeast

Location: Floro

Current Time: Nov 28, 2015 at 11:49:19 PM

Latest Report: Nov 28, 2015 at 10:50 PM

Visibility: 4 mi

Pressure: 28.85 "Hg

Humidity: 93%

Dew point: 36 °F

Location of FørdeLocation

Historic Weather in Førde — Graph


Førde temperature yesterday

Maximum temperature yesterday: 52 °F (at 9:20 AM)
Minimum temperature yesterday: 41 °F (at 7:50 PM)
Average temperature yesterday: 48 °F

Past Weeks' High & Low Weather Summary

High52 °F (Nov 27, 9:20 AM)100% (Nov 15, 12:50 PM)29.98 "Hg (Nov 15, 12:50 PM)
Low28 °F (Nov 21, 11:50 PM)50% (Nov 16, 5:20 AM)28.85 "Hg (Nov 28, 10:20 PM)
Average41 °F82%29.40 "Hg
* Reported Nov 13 10:20 PM — Nov 28 10:20 PM, Førde, Weather by CustomWeather, © 2015

Note: Actual official high and low records may vary slightly from our data, if they occured in-between our weather recording intervals... More about our weather records


Førde weather history for previous 24 hours

Time TempWeatherWind HumidityBarometerVisibility
10:20 PM
Sat, Nov 28
39 °FLight rain. Overcast.24 mph81%28.85 "HgN/A
9:20 PM39 °FLight rain. Mostly cloudy.22 mph87%28.88 "HgN/A
8:50 PM39 °FLight rain. Overcast.28 mph87%28.88 "HgN/A
8:20 PM37 °FLight rain. Mostly cloudy.25 mph87%28.91 "HgN/A
7:50 PM37 °FSprinkles. Overcast.25 mph81%28.94 "HgN/A
7:20 PM41 °FSprinkles. Mostly cloudy.21 mph76%28.97 "HgN/A
6:50 PM41 °FPartly cloudy.21 mph81%29.00 "HgN/A
6:20 PM37 °FSprinkles. Partly cloudy.15 mph87%29.03 "HgN/A
5:50 PM41 °FSprinkles. Partly cloudy.23 mph76%29.06 "HgN/A
5:20 PM43 °FPassing clouds.23 mph76%29.06 "HgN/A
4:50 PM41 °FSprinkles. Passing clouds.18 mph81%29.09 "HgN/A
4:20 PM41 °FSprinkles. Mostly cloudy.18 mph81%29.09 "HgN/A
3:50 PM41 °FScattered showers. Passing clouds.22 mph81%29.09 "HgN/A
3:20 PM43 °FSprinkles. Scattered clouds.21 mph66%29.09 "HgN/A
2:50 PM43 °FSprinkles. Mostly cloudy.23 mph76%29.09 "HgN/A
2:20 PM43 °FSprinkles. Broken clouds.23 mph71%29.12 "HgN/A
1:50 PM43 °FScattered showers. Broken clouds.22 mph71%29.12 "HgN/A
1:20 PM43 °FScattered showers. Broken clouds.23 mph76%29.12 "HgN/A
12:50 PM43 °FScattered showers. Broken clouds.24 mph76%29.12 "HgN/A
12:20 PM41 °FScattered showers. Scattered clouds.21 mph87%29.12 "HgN/A
11:50 AM39 °FScattered showers. Broken clouds.28 mph87%29.12 "HgN/A
11:20 AM41 °FScattered showers. Broken clouds.24 mph76%29.12 "HgN/A
10:50 AM41 °FScattered showers. Scattered clouds.25 mph70%29.15 "HgN/A
10:20 AM43 °FScattered showers. Broken clouds.18 mph71%29.15 "HgN/A
9:50 AM41 °FScattered showers. Scattered clouds.18 mph70%29.15 "HgN/A
9:20 AM41 °FScattered showers. Scattered clouds.25 mph70%29.15 "HgN/A
8:50 AM39 °FRain showers. Passing clouds.24 mph75%29.12 "HgN/A
7:20 AM41 °FSprinkles. Partly cloudy.18 mph76%29.15 "HgN/A
6:50 AM39 °FScattered showers. Partly cloudy.20 mph75%29.15 "HgN/A
6:20 AM43 °FScattered showers. Partly cloudy.24 mph66%29.12 "HgN/A
5:50 AM39 °FSprinkles. Partly cloudy.23 mph87%29.12 "HgN/A
4:50 AM39 °FSprinkles. Partly cloudy.18 mph81%29.12 "HgN/A
4:20 AM41 °FSprinkles. Partly cloudy.22 mph81%29.15 "HgN/A
3:50 AM39 °FSprinkles. Overcast.20 mph87%29.15 "HgN/A
3:20 AM39 °FSprinkles. Mostly cloudy.16 mph87%29.15 "HgN/A
2:50 AM39 °FSprinkles. Overcast.21 mph87%29.15 "HgN/A
2:20 AM37 °FLight rain. Fog.16 mph81%29.18 "Hg3 mi
1:50 AM41 °FPartly cloudy.16 mph81%29.15 "HgN/A
12:50 AM43 °FPassing clouds.10 mph71%29.18 "HgN/A
11:50 PM
Fri, Nov 27
43 °FPassing clouds.13 mph71%29.18 "HgN/A
11:20 PM43 °FSprinkles. Passing clouds.12 mph76%29.18 "HgN/A
Weather by CustomWeather, © 2015

See weather overviewHow to use our weather pages